[[{"header":{"parameterUnit":"m.s-1","parameterCategory":1,"la1":30.2991,"la2":30.254,"lo1":-89.0895,"lo2":-89.0444,"dy":0.0017,"dx":0.0017,"nx":28,"ny":28,"refTime":"2025-11-23T03:00:00:Z","depth":0,"parameterNumber":2,"parameterNumberName":"U-component_of_WINDS"},"data":[0,0,0,0,0,0,0,0,0,0,0,0,0,0,0,0,0,0,0,0,0,0,0,0,0,0,0,0,0,0,0,0,0,0,0,0,0,0,0,0,0,0,0,0,0,0,0,0,0,0,0,0,0,0,0,0,0,0,0.7893,0.7894,0,0.7995,0.7996,0.7997,0.8003,0.8002,0.8001,0.8,0.8107,0.8111,0.8115,0,0,0,0,0,0,0,0,0,0,0,0,0,0.7707,0.771,0.7893,0.7894,0.7895,0.7995,0.7996,0.7998,0.8004,0.8002,0.8001,0.7999,0.8106,0.8111,0.8115,0,0,0,0,0,0,0,0,0,0,0,0,0,0.7796,0.7711,0.7893,0.791,0.7913,0.7995,0.7996,0.7998,0.8004,0.8002,0.8,0.7999,0.8104,0.811,0.8116,0.8188,0,0,0.8134,0.8137,0,0,0,0,0,0,0,0,0.7791,0.7803,0.7906,0.7909,0.7912,0.7985,0.797,0.8062,0.8004,0.797,0.8,0.7998,0.8068,0.8077,0.81,0.8193,0.8198,0.8135,0.8138,0.8141,0.8143,0,0,0,0,0,0,0,0.7785,0.7799,0.7933,0.7908,0.7912,0.7914,0.7925,0.7987,0.8028,0.7972,0.7973,0.7985,0.8069,0.8094,0.8103,0.8199,0.8135,0.814,0.8143,0.8146,0.8358,0.836,0,0,0,0,0,0,0.7775,0.7793,0.793,0.7936,0.7846,0.7919,0.7931,0.7963,0.8027,0.8035,0.7986,0.7985,0.8085,0.8096,0.8106,0.8196,0.8141,0.8146,0.815,0.8356,0.8358,0.8361,0,0,0,0,0,0,0.7771,0.7787,0.7926,0.7865,0.7883,0.7924,0.796,0.7966,0.7991,0.8037,0.8045,0.8004,0.8084,0.8098,0.8168,0.8199,0.8149,0.8154,0.8354,0.8357,0.836,0.8374,0,0,0,0,0,0,0.7765,0.7785,0.7812,0.7866,0.7886,0.7985,0.7962,0.797,0.8001,0.8,0.8056,0.8064,0.8084,0.8159,0.8174,0.8207,0.8159,0.8351,0.8355,0.8359,0.8371,0.8377,0.8382,0,0,0,0,0,0.7759,0.7812,0.7813,0.783,0.792,0.7986,0.7998,0.8019,0.8003,0.8031,0.8061,0.8062,0.8194,0.8166,0.8183,0.8218,0.8349,0.8354,0.8358,0.8368,0.8376,0.8382,0,0,0,0,0,0,0.7762,0.7819,0.7821,0.7894,0.7935,0.7987,0.8023,0.8027,0.8074,0.8071,0.8097,0.8109,0.8179,0.8205,0.8174,0.8292,0.827,0.8278,0.8271,0.8279,0.8285,0.8277,0.8164,0,0,0,0,0,0.7771,0.7818,0.7867,0.7926,0.7947,0.7981,0.8011,0.8024,0.8068,0.8086,0.8121,0.8164,0.8216,0.8249,0.8299,0.8375,0.8388,0.8407,0.8413,0.8418,0.8425,0.8468,0.8478,0.8376,0.8376,0.8376,0,0,0.779,0.7828,0.7856,0.7928,0.7961,0.8011,0.7996,0.8049,0.8087,0.8094,0.8162,0.8189,0.824,0.8313,0.8348,0.8338,0.8456,0.8424,0.8427,0.8432,0.8474,0.8483,0.8492,0.8379,0.8379,0.8378,0,0,0.7851,0.7884,0.7937,0.7971,0.8022,0.8045,0.8058,0.811,0.8128,0.8196,0.8203,0.8249,0.8337,0.8373,0.8402,0.8479,0.8481,0.8494,0.8525,0.8567,0.8575,0.8582,0.861,0.862,0.8501,0.8501,0.8501,0,0.7868,0.7943,0.7964,0.8017,0.8049,0.8058,0.8113,0.8145,0.821,0.8232,0.8221,0.8332,0.8366,0.8449,0.8467,0.8491,0.8508,0.8488,0.8572,0.8579,0.8586,0.8613,0.8624,0.8502,0.8502,0.8502,0.8502,0,0.7963,0.8014,0.8052,0.8113,0.815,0.8204,0.8234,0.8269,0.8279,0.8304,0.8374,0.8416,0.8475,0.8496,0.8506,0.8581,0.8573,0.8566,0.8545,0.8597,0.8623,0.8633,0.8504,0.8504,0.8503,0.8503,0,0,0.8027,0.81,0.8114,0.8142,0.82,0.8241,0.8296,0.8353,0.8383,0.8428,0.8475,0.855,0.8545,0.8579,0.8594,0.8631,0.8689,0.862,0.8621,0.8631,0.8775,0.8779,0.8791,0.8692,0.8694,0.8695,0.8771,0,0.8094,0.8191,0.8212,0.8297,0.8345,0.8355,0.8404,0.8445,0.847,0.8516,0.8544,0.8597,0.8585,0.8606,0.8643,0.8674,0.8718,0.8669,0.8737,0.8739,0.8724,0.8804,0.8809,0.8877,0.8781,0.8782,0.8784,0,0.8185,0.8231,0.832,0.8372,0.8394,0.8436,0.8491,0.8535,0.8583,0.8598,0.8637,0.8649,0.8708,0.8684,0.8767,0.8733,0.8762,0.8782,0.8785,0.8792,0.8764,0.8813,0.89,0.891,0.88,0.8798,0.8797,0,0.8223,0.8308,0.8373,0.8397,0.8459,0.8489,0.8517,0.8563,0.8596,0.8645,0.8667,0.8722,0.8752,0.8795,0.8822,0.8802,0.8903,0.8881,0.8919,0.8918,0.8939,0.8937,0.9031,0.8958,0.8958,0.8958,0.8957,0,0.8296,0.835,0.8391,0.843,0.8492,0.8517,0.8578,0.8605,0.8647,0.8693,0.8705,0.8749,0.8781,0.883,0.8851,0.8917,0.8931,0.8946,0.8951,0.8945,0.8943,0.8964,0.896,0.896,0.896,0.8959,0.8959,0,0.8348,0.8378,0.8449,0.8502,0.8517,0.856,0.8607,0.8646,0.8672,0.873,0.8746,0.8787,0.8844,0.8875,0.8948,0.8963,0.9037,0.9039,0.902,0.9022,0.9058,0.9054,0.9169,0.9186,0.9101,0.9102,0.9103,0,0.8392,0.8434,0.8492,0.8524,0.8552,0.8602,0.8636,0.8664,0.8699,0.8757,0.879,0.8849,0.8897,0.8989,0.9026,0.9082,0.9086,0.9122,0.9094,0.9087,0.9087,0.9084,0.9089,0.9127,0.9128,0.9128,0.9129,0,0.8468,0.8481,0.8529,0.8583,0.8623,0.8667,0.871,0.8736,0.877,0.881,0.8868,0.8906,0.898,0.9038,0.9097,0.9127,0.9135,0.9138,0.9149,0.9143,0.9131,0.9138,0.9033,0.9135,0.9134,0.9134,0.9133,0.9133,0.8518,0.8556,0.8603,0.8656,0.8692,0.8733,0.8773,0.8804,0.8853,0.8915,0.8928,0.8991,0.904,0.912,0.9151,0.9202,0.9194,0.9211,0.9216,0.9219,0.9221,0.9123,0.9213,0.9212,0.9212,0.9212,0.9212,0,0.8594,0.8625,0.8674,0.8734,0.8777,0.8779,0.8828,0.8864,0.8918,0.8963,0.901,0.9079,0.9136,0.9177,0.9236,0.9268,0.9273,0.9283,0.928,0.9287,0.9224,0.9208,0.9278,0.9278,0.9278,0.9278,0.9278,0.9278,0.8638,0.8703,0.8722,0.8805,0.8836,0.8896,0.8924,0.8962,0.8998,0.9074,0.9121,0.9147,0.9191,0.9253,0.9306,0.9317,0.9339,0.9348,0.9359,0.9299,0.9292,0.9285,0.927,0.9352,0.9352,0.9419,0.9419,0.942]},{"header":{"parameterUnit":"m.s-1","parameterCategory":1,"la1":30.2991,"la2":30.254,"lo1":-89.0895,"lo2":-89.0444,"dy":0.0017,"dx":0.0017,"nx":28,"ny":28,"refTime":"2025-11-23T03:00:00:Z","depth":0,"parameterNumber":3,"parameterNumberName":"V-component_of_WINDS"},"data":[0,0,0,0,0,0,0,0,0,0,0,0,0,0,0,0,0,0,0,0,0,0,0,0,0,0,0,0,0,0,0,0,0,0,0,0,0,0,0,0,0,0,0,0,0,0,0,0,0,0,0,0,0,0,0,0,0,0,-1.5967,-1.5966,0,-1.5886,-1.5885,-1.5884,-1.5878,-1.5879,-1.588,-1.5881,-1.5791,-1.5788,-1.5785,0,0,0,0,0,0,0,0,0,0,0,0,0,-1.6111,-1.6108,-1.5967,-1.5966,-1.5965,-1.5886,-1.5885,-1.5884,-1.5878,-1.5879,-1.588,-1.5881,-1.5792,-1.5789,-1.5785,0,0,0,0,0,0,0,0,0,0,0,0,0,-1.6041,-1.6107,-1.5967,-1.5952,-1.595,-1.5886,-1.5885,-1.5884,-1.5878,-1.5879,-1.588,-1.5881,-1.5794,-1.5789,-1.5784,-1.5727,0,0,-1.5769,-1.5767,0,0,0,0,0,0,0,0,-1.6045,-1.6036,-1.5955,-1.5953,-1.5951,-1.5894,-1.5903,-1.5831,-1.5877,-1.5905,-1.5881,-1.5882,-1.5824,-1.5817,-1.5798,-1.5723,-1.5719,-1.5769,-1.5766,-1.5764,-1.5763,0,0,0,0,0,0,0,-1.605,-1.6039,-1.5935,-1.5954,-1.5951,-1.5948,-1.594,-1.5889,-1.5857,-1.5903,-1.5902,-1.5893,-1.5823,-1.5803,-1.5796,-1.5718,-1.5769,-1.5765,-1.5762,-1.576,-1.5594,-1.5593,0,0,0,0,0,0,-1.6058,-1.6043,-1.5937,-1.5932,-1.6002,-1.5945,-1.5935,-1.591,-1.5858,-1.5852,-1.5892,-1.5893,-1.5811,-1.5802,-1.5793,-1.5724,-1.5764,-1.576,-1.5757,-1.5596,-1.5594,-1.5592,0,0,0,0,0,0,-1.6061,-1.6049,-1.594,-1.5988,-1.5974,-1.5941,-1.5913,-1.5908,-1.5888,-1.585,-1.5844,-1.5878,-1.5811,-1.58,-1.5745,-1.5721,-1.5757,-1.5753,-1.5598,-1.5595,-1.5593,-1.5585,0,0,0,0,0,0,-1.6065,-1.605,-1.6029,-1.5987,-1.5971,-1.5895,-1.5912,-1.5906,-1.5881,-1.5882,-1.5835,-1.5829,-1.5811,-1.5752,-1.574,-1.5715,-1.5749,-1.5599,-1.5596,-1.5594,-1.5588,-1.5583,-1.5579,0,0,0,0,0,-1.6071,-1.6028,-1.6028,-1.6015,-1.5944,-1.5893,-1.5884,-1.5867,-1.5879,-1.5857,-1.5833,-1.583,-1.5726,-1.5746,-1.5733,-1.5706,-1.5601,-1.5597,-1.5594,-1.5589,-1.5584,-1.5579,0,0,0,0,0,0,-1.6064,-1.6022,-1.6021,-1.5964,-1.5933,-1.5893,-1.5864,-1.5861,-1.5824,-1.5826,-1.5804,-1.5794,-1.5739,-1.5717,-1.5741,-1.5649,-1.5664,-1.5658,-1.5666,-1.566,-1.5656,-1.5662,-1.5745,0,0,0,0,0,-1.6057,-1.6021,-1.5985,-1.5938,-1.5923,-1.5897,-1.5873,-1.5864,-1.5829,-1.5815,-1.5786,-1.5751,-1.5711,-1.5684,-1.5645,-1.5585,-1.5575,-1.556,-1.5556,-1.5553,-1.5547,-1.5515,-1.5508,-1.5581,-1.5581,-1.5581,0,0,-1.604,-1.6013,-1.599,-1.5937,-1.5911,-1.5873,-1.5885,-1.5844,-1.5815,-1.5808,-1.5755,-1.5733,-1.5693,-1.5636,-1.5609,-1.5615,-1.5525,-1.5548,-1.5546,-1.5542,-1.5511,-1.5504,-1.5498,-1.5579,-1.5579,-1.558,0,0,-1.599,-1.5966,-1.5925,-1.59,-1.5863,-1.5846,-1.5836,-1.5797,-1.5783,-1.573,-1.5725,-1.5689,-1.562,-1.5592,-1.5568,-1.5512,-1.5508,-1.5499,-1.5477,-1.5446,-1.544,-1.5435,-1.5415,-1.5408,-1.5494,-1.5494,-1.5494,0,-1.5973,-1.5917,-1.5903,-1.5863,-1.584,-1.5835,-1.5793,-1.5769,-1.5719,-1.5703,-1.5712,-1.5626,-1.5598,-1.5535,-1.5522,-1.5503,-1.5491,-1.5503,-1.5443,-1.5437,-1.5432,-1.5412,-1.5405,-1.5493,-1.5493,-1.5493,-1.5493,0,-1.5899,-1.586,-1.5831,-1.5787,-1.5761,-1.5719,-1.5699,-1.5673,-1.5666,-1.5648,-1.5595,-1.5562,-1.5517,-1.5502,-1.5493,-1.5437,-1.5443,-1.5447,-1.5462,-1.5424,-1.5406,-1.5398,-1.5492,-1.5492,-1.5493,-1.5493,0,0,-1.5839,-1.5791,-1.5781,-1.5762,-1.5721,-1.569,-1.565,-1.5608,-1.5587,-1.5553,-1.5518,-1.5461,-1.5466,-1.544,-1.5428,-1.5401,-1.5359,-1.5409,-1.5407,-1.5401,-1.5296,-1.5293,-1.5285,-1.5357,-1.5356,-1.5354,-1.53,0,-1.5785,-1.5715,-1.5702,-1.564,-1.5605,-1.5601,-1.5566,-1.5536,-1.5519,-1.5486,-1.5466,-1.5426,-1.5435,-1.542,-1.5393,-1.537,-1.5337,-1.5373,-1.5323,-1.5321,-1.5332,-1.5275,-1.527,-1.522,-1.5292,-1.5291,-1.529,0,-1.5711,-1.568,-1.5615,-1.5582,-1.5566,-1.5535,-1.5497,-1.5465,-1.5432,-1.5421,-1.5394,-1.5386,-1.5343,-1.5362,-1.5301,-1.5326,-1.5305,-1.5291,-1.5288,-1.5282,-1.5303,-1.5266,-1.5204,-1.5196,-1.5278,-1.5279,-1.528,0,-1.5675,-1.5616,-1.557,-1.5554,-1.5514,-1.5492,-1.5474,-1.5442,-1.5419,-1.5385,-1.537,-1.5331,-1.5309,-1.5278,-1.526,-1.5275,-1.5202,-1.5218,-1.5191,-1.5191,-1.5174,-1.5175,-1.5107,-1.5161,-1.5162,-1.5162,-1.5162,0,-1.5615,-1.5575,-1.5554,-1.5525,-1.5481,-1.5467,-1.5423,-1.5405,-1.5378,-1.5345,-1.5339,-1.5308,-1.5287,-1.5253,-1.5238,-1.5191,-1.5181,-1.517,-1.5167,-1.5171,-1.5172,-1.5155,-1.5158,-1.516,-1.516,-1.5161,-1.5161,0,-1.5566,-1.555,-1.55,-1.5468,-1.5459,-1.5428,-1.5399,-1.5371,-1.5356,-1.5314,-1.5304,-1.5278,-1.5238,-1.5218,-1.5166,-1.5157,-1.5103,-1.5102,-1.5115,-1.5114,-1.5087,-1.509,-1.5005,-1.4993,-1.5057,-1.5056,-1.5056,0,-1.5528,-1.5499,-1.5464,-1.5444,-1.5426,-1.5392,-1.5369,-1.5355,-1.5331,-1.5293,-1.5269,-1.523,-1.5197,-1.5133,-1.5108,-1.507,-1.5067,-1.504,-1.5061,-1.5066,-1.5066,-1.5068,-1.5065,-1.5036,-1.5035,-1.5035,-1.5034,0,-1.5463,-1.5458,-1.5426,-1.5393,-1.5367,-1.5339,-1.5311,-1.5294,-1.5275,-1.5248,-1.5209,-1.5184,-1.5134,-1.5094,-1.5055,-1.5034,-1.5031,-1.5029,-1.502,-1.5023,-1.5032,-1.5027,-1.5105,-1.503,-1.503,-1.5031,-1.5031,-1.5031,-1.5419,-1.5393,-1.5365,-1.5331,-1.531,-1.5285,-1.5258,-1.524,-1.5208,-1.5168,-1.5161,-1.5119,-1.5088,-1.5035,-1.5014,-1.498,-1.4985,-1.4973,-1.497,-1.4967,-1.4966,-1.5039,-1.4973,-1.4973,-1.4973,-1.4973,-1.4973,0,-1.5353,-1.5337,-1.5305,-1.5269,-1.5242,-1.5245,-1.5215,-1.5191,-1.5156,-1.5128,-1.5098,-1.5053,-1.5015,-1.499,-1.4951,-1.4929,-1.4927,-1.4919,-1.492,-1.4916,-1.4963,-1.4974,-1.4922,-1.4922,-1.4922,-1.4922,-1.4922,-1.4922,-1.5316,-1.5273,-1.5264,-1.521,-1.5193,-1.5154,-1.5137,-1.5114,-1.5093,-1.5044,-1.5014,-1.4999,-1.4972,-1.4932,-1.4898,-1.4891,-1.4877,-1.4869,-1.4863,-1.4907,-1.4912,-1.4917,-1.4928,-1.4867,-1.4867,-1.4818,-1.4818,-1.4817]}]]